Regional Weather Roundup
Issued by NWS

Home | Current Version | Previous Version | Text Only | Print | Product List | Glossary On
Versions: 1 2 3 4 5 6 7 8 9 10 11 12 13 14 15 16 17 18 19 20 21 22 23 24 25 26 27 28 29 30 31 32 33 34 35 36 37 38 39 40 41 42 43 44 45 46 47 48 49 50
444
ASUS46 KPQR 280710
RWROR

OREGON REGIONAL WEATHER ROUNDUP
NATIONAL WEATHER SERVICE PORTLAND OR
1200 AM PDT WED SEP 28 2016

NOTE: "FAIR" INDICATES FEW OR NO CLOUDS BELOW 12,000 FEET WITH
NO SIGNIFICANT WEATHER AND/OR OBSTRUCTIONS TO VISIBILITY.

ORZ001>013-280800-
NORTHWEST OREGON


CITY           SKY/WX    TMP DP  RH WIND       PRES   REMARKS
ASTORIA        CLEAR     55  52  89 CALM      30.10S
NEWPORT        FOG       46  46 100 CALM      30.10R VSB 3/4
PORTLAND       PTCLDY    60  46  59 NW10      30.06R
VANCOUVER WA   CLEAR     61  45  55 NW6       30.05R
SCAPPOOSE      CLEAR     61  38  42 N6        30.05S
HILLSBORO      CLEAR     58  49  72 NW10      30.05S
AURORA         CLEAR     57  50  77 N7        30.06S
MCMINNVILLE    CLEAR     59  49  69 CALM      30.06S
SALEM          CLEAR     59  50  72 N8        30.04S
CORVALLIS        N/A     63  48  59 N7        30.06S
EUGENE         CLEAR     58  50  75 N10       30.04R
$$

ORZ021-028-280800-
SOUTHWEST OREGON


CITY           SKY/WX    TMP DP  RH WIND       PRES   REMARKS
NORTH BEND       N/A     54  54 100 N9        30.06S
BROOKINGS      CLEAR     55  52  89 CALM      29.96S
ROSEBURG       CLEAR     66  49  54 CALM      30.01S
SEXTON SUMMIT  CLEAR     54  49  83 N13       30.06S
MEDFORD        CLEAR     67  53  61 CALM      29.97R
$$

ORZ014>016-041-280800-
COLUMBIA GORGE


CITY           SKY/WX    TMP DP  RH WIND       PRES   REMARKS
TROUTDALE      CLEAR     56  53  90 CALM      30.05R
THE DALLES     CLEAR     65  53  65 NW13      29.99S
$$

ORZ029>031-041-044-049-050-061>064-502-503-505>511-280800-
EASTERN OREGON


CITY           SKY/WX    TMP DP  RH WIND       PRES   REMARKS
REDMOND        CLEAR     61  46  57 W5        30.05S
BEND           CLEAR     59  46  63 CALM      30.07S
PRINEVILLE     CLEAR     57  45  62 CALM      30.06S
KLAMATH FALLS  CLEAR     51  41  68 CALM      30.06S
LAKEVIEW       CLEAR     50  30  46 NW8       30.10S
HERMISTON      CLEAR     60  47  61 SW5       29.97S
PENDLETON      CLEAR     59  46  62 SE7       29.99S
JOHN DAY       CLEAR     62  41  45 E9        30.07S
MEACHAM        CLEAR     46  41  82 CALM      30.10S
LA GRANDE      CLEAR     57  37  47 CALM      30.05R
BAKER CITY     CLEAR     47  40  76 CALM      30.07S
BURNS          CLEAR     50  34  54 SW3       30.08S
ROME             N/A     61  33  35 NE9       30.05S
ONTARIO        CLEAR     56  45  66 CALM      30.00S
$$




USA.gov is the U.S. government's official web portal to all federal, state and local government web resources and services.